Zurück zum Katalog

STARLINK-32583

AktivKommunikationVLEO
NORAD 61955·PAYLOAD·🇺🇸 United States

Gestartet Nov 14, 2024 von Vandenberg Space Force Base

Loading…

Nächste Überflüge (nächste 24 Stunden)

TLE

AktuellSource: CelesTrak SupGP

Epoche: Sep 14, 2026, 20:49 UTC

1 61955C 24209S   26257.86784722 -.00016412  00000+0 -48504-3 0  2575
2 61955  53.1600 334.2992 0001179  80.4521 253.4588 15.34389568    11

Verfolge STARLINK-32583 in Echtzeit mit AllMySat

Download on the App Store